Location: Huntsville
(41.2590°N, 111.7678°W)
Time: 05:02:45
(UTC+00:00)

A-11 Canister half - Visible Passes

Search period start: 06 October 2022 00:00
Search period end: 16 October 2022 00:00
Orbit: 1516 x 1684 km, 47.2° (Epoch: 05 October)

Date Brightness Start Highest point End Pass type
(mag) Time Alt. Az. Time Alt. Az. Time Alt. Az.
06 Oct 9.2 02:20:15 10° SSW 02:29:44 54° SE 02:36:20 21° ENE visible
06 Oct 9.0 04:24:47 10° WSW 04:34:33 74° NNW 04:34:33 74° NNW visible
06 Oct 10.8 06:30:56 10° WNW 06:32:45 17° WNW 06:32:45 17° WNW visible
06 Oct 10.2 10:54:45 20° S 10:54:45 20° S 10:57:37 10° S visible
07 Oct 9.3 01:57:24 10° SSW 02:06:50 51° SE 02:14:50 14° ENE visible
07 Oct 9.0 04:01:46 10° WSW 04:11:35 76° NNW 04:13:02 66° NE visible
07 Oct 10.5 06:07:55 10° WNW 06:11:15 24° WNW 06:11:15 24° WNW visible
07 Oct 10.7 10:34:09 13° S 10:34:09 13° S 10:34:58 10° SSE visible
08 Oct 9.4 01:34:35 10° SSW 01:43:56 48° SE 01:53:00 10° ENE visible
08 Oct 9.0 03:38:47 10° WSW 03:48:38 78° NNW 03:51:27 52° NE visible
08 Oct 10.2 05:44:55 10° WNW 05:49:39 32° WNW 05:49:39 32° WNW visible
09 Oct 9.5 01:11:47 10° SSW 01:21:03 46° SE 01:30:02 10° ENE visible
09 Oct 9.0 03:15:46 10° WSW 03:25:40 81° NNW 03:29:48 40° ENE visible
09 Oct 9.8 05:21:53 10° W 05:28:00 41° WNW 05:28:00 41° WNW visible
10 Oct 9.0 02:52:46 10° WSW 03:02:42 83° NNW 03:08:06 31° ENE visible
10 Oct 9.5 04:58:51 10° W 05:06:18 51° NW 05:06:18 51° NW visible
11 Oct 9.0 02:29:47 10° WSW 02:39:44 86° NNW 02:46:21 24° ENE visible
11 Oct 9.3 04:35:50 10° W 04:44:33 59° NNW 04:44:33 59° NNW visible
11 Oct 11.0 06:41:36 10° WNW 06:42:44 14° WNW 06:42:44 14° WNW visible
12 Oct 9.1 02:06:47 10° WSW 02:16:47 88° NNW 02:24:35 18° ENE visible
12 Oct 9.2 04:12:47 10° W 04:22:28 61° N 04:22:46 61° N visible
12 Oct 10.7 06:18:38 10° WNW 06:20:57 20° WNW 06:20:57 20° WNW visible
13 Oct 9.1 01:43:48 10° WSW 01:53:50 89° SSE 02:02:47 13° ENE visible
13 Oct 9.2 03:49:45 10° W 03:59:28 62° N 04:00:58 56° NNE visible
13 Oct 10.5 05:55:40 10° WNW 05:59:09 26° WNW 05:59:09 26° WNW visible
14 Oct 9.1 01:20:51 10° WSW 01:30:53 86° SSE 01:40:34 10° ENE visible
14 Oct 9.2 03:26:43 10° W 03:36:28 62° N 03:39:08 48° NE visible
14 Oct 10.2 05:32:40 10° WNW 05:37:19 33° WNW 05:37:19 33° WNW visible
15 Oct 9.2 00:57:53 10° SW 01:07:55 83° SSE 01:17:38 10° ENE visible
15 Oct 9.2 03:03:41 10° W 03:13:28 63° N 03:17:19 39° ENE visible
15 Oct 9.9 05:09:41 10° WNW 05:15:30 41° NW 05:15:30 41° NW visible
